Regional Weather Roundup
Issued by NWS Wilmington, NC

Home | Current Version | Previous Version | Text Only | Print | Product List | Glossary On
Versions: 1 2 3 4 5 6 7 8 9 10 11 12 13 14 15 16 17 18 19 20 21 22 23 24 25 26 27
000
ASUS42 KILM 171813
RWRILM
RWRILM
REGIONAL HOURLY WEATHER ROUNDUP
NATIONAL WEATHER SERVICE WILMINGTON NC
100 PM EST SUN DEC 17 2017

NOTE: "FAIR" INDICATES FEW OR NO CLOUDS BELOW 12,000 FEET WITH NO
SIGNIFICANT WEATHER AND/OR OBSTRUCTIONS TO VISIBILITY.

...............WFO WILMINGTON COUNTY WARNING AREA...............

......COASTAL NC AND SC COUNTIES......

CITY           SKY/WX    TMP DP  RH WIND       PRES   REMARKS
WILMINGTON     SUNNY     60  38  43 W3        30.24F
N MYRTLE BEACH SUNNY     55  40  56 S7        30.26F
MYRTLE BEACH   SUNNY     56  41  57 S7        30.26F

......INLAND NC AND SC COUNTIES.......

CITY           SKY/WX    TMP DP  RH WIND       PRES   REMARKS
LUMBERTON      SUNNY     56  31  38 SW6       30.23F
ELIZABETHTOWN  NOT AVBL
WHITEVILLE     SUNNY     58  35  41 S8        30.26F
FLORENCE       SUNNY     55  29  36 S7        30.25F
DARLINGTON     SUNNY     56  33  42 S6        30.24F
KINGSTREE      FAIR      55  32  41 CALM      30.26F
HARTSVILLE     FAIR      52  30  43 S3        30.23F
BENNETTSVILLE  FAIR      57  32  38 SE6       30.23F
CONWAY         FAIR      57  36  44 SW6       30.25F HAZE
GEORGETOWN     FAIR      59  37  44 CALM      30.26F
MARION         FAIR      54  30  40 S5        30.26F

....................REST OF NORTH CAROLINA......................

.........EASTERN NC.........

CITY           SKY/WX    TMP DP  RH WIND       PRES   REMARKS
CAPE HATTERAS  MOSUNNY   51  36  56 NW6       30.25F
JACKSONVILLE   SUNNY     57  32  38 SW7       30.26F
MOREHEAD CITY  MOSUNNY   54  38  54 SW7       30.27F
KENANSVILLE    MOSUNNY   55  32  41 SW5       30.25F
NEW BERN       CLOUDY    53  31  42 SW6       30.28F
ELIZABETH CITY CLOUDY    51  37  58 SW8       30.26F

.........CENTRAL NC.........

CITY           SKY/WX    TMP DP  RH WIND       PRES   REMARKS
RALEIGH DURHAM CLOUDY    51  29  42 SW6       30.21F
ROCKY MOUNT    MOSUNNY   51  31  46 SW7       30.24F
ROANOKE RAPIDS NOT AVBL
FAYETTEVILLE   SUNNY     56  31  38 VRB3      30.23F
HOFFMAN        MOSUNNY   56  29  35 S8        30.21F

.........WESTERN NC.........

CITY           SKY/WX    TMP DP  RH WIND       PRES   REMARKS
CHARLOTTE      CLOUDY    50  31  48 SW6       30.22F
GREENSBORO     CLOUDY    49  30  48 SW6       30.20F
HICKORY        NOT AVBL
BOONE          NOT AVBL
ASHEVILLE      NOT AVBL

.....................REST OF SOUTH CAROLINA.....................

.........EASTERN SC.........

CITY           SKY/WX    TMP DP  RH WIND       PRES   REMARKS
CHARLESTON     MOSUNNY   61  36  39 S7        30.25F
BEAUFORT MCAS  SUNNY     61  41  47 SE5       30.25F
HILTON HEAD    SUNNY     59  43  55 NE3       30.26F

.........CENTRAL SC.........

CITY           SKY/WX    TMP DP  RH WIND       PRES   REMARKS
COLUMBIA       PTSUNNY   58  34  40 VRB3      30.24F
ORANGEBURG     SUNNY     57  30  35 S5        30.23F
SUMTER SHAW    PTSUNNY   57  30  36 SE6       30.21F

.........WESTERN SC.........

CITY           SKY/WX    TMP DP  RH WIND       PRES   REMARKS
GREENVILLE     NOT AVBL
ROCK HILL      CLOUDY    51  30  44 W7        30.23F
ANDERSON       CLOUDY    50  34  54 SW8       30.24F
CLEMSON        NOT AVBL
GREENWOOD      CLOUDY    51  31  46 SW5       30.25F


...................COASTAL AND OFFSHORE REPORTS..................

................LOCAL PIERS AND NC RESERVE................


STATION/POSITION TIME  SKY/WX   TEMP    WIND        PRES    VSBY
                                AIR SEA DIR/SP/G
                 (UTC)          (F)     (DEG/KT/KT) (MB)    (MI)
JOHNY MRCER PIER 1736            51 56  150/  3/  4 1024.5F
NC RESRV MASNBRO 1645            48     200/  2     1026.0
OCEAN CREST PIER NOT AVBL
SPRINGMAID  PIER 1736                               1027.9F


................COASTAL AND OFFSHORE BUOYS................


STATION/POSITION TIME  SKY/WX   TEMP    WIND        PRES    VSBY
                                AIR SEA DIR/SP/G
                 (UTC)          (F)     (DEG/KT/KT) (MB)    (MI)
DIMNDSHOAL 41025 1800            57 72  230/  8/ 12 1024.4
CAPE LOOKOUT     1800                   240/  3/  4 1025.3F
ONSLOW BAY 41036 NOT AVBL
ONSLOW BAY 41064 1708            56 63  180/  4/  8 1025.2F
ONSLOW BAY 41159 1800               63                N/A
WVE H/P(F/S)=  2/ 8

MASNBO INL 41110 1759               56                N/A
WVE H/P(F/S)=  1/10

WILM HARBR 41108 1800               54                N/A
WVE H/P(F/S)=  1/11

27SE WRITB 41037 1708            56 62  220/  2/  6 1025.4F
FRYING PAN 41013 1800            59 69   40/  4/  6 1023.9
SUNST NRSH 41024 1708            50      30/  2/  2 1025.3F
CAPRS NRSH 41029 1708            55 55   30/  4/  6 1025.2F
EDISTO     41004 1800            62 72   60/  2/  4 1023.9


..........OFFSHORE BUOYS BEYOND 100 NM OFFSHORE...........
.....IN A TRIANGLE---HAT TO BERMUDA TO BAHAMAS TO HAT.....


STATION/POSITION TIME  SKY/WX   TEMP    WIND        PRES    VSBY
                                AIR SEA DIR/SP/G
                 (UTC)          (F)     (DEG/KT/KT) (MB)    (MI)
150E HAT   41001 NOT AVBL
W BERMUDA  41048 1800            67 74  330/  6/ 10 1025.1
ATLANTIC S 41049 1750            73 77  360/ 14/ 17 1021.8F
WVE H/P(F/S)=  7/ 9 SWL H/P/D(F/S/D)=  5/300/ 9

E BAHAMAS  41046 1800            78 80   30/ 14/ 16 1021.2
NE BAHAMAS 41047 1750            70      70/ 12/ 16 1023.9F
WVE H/P(F/S)=  5/ 8 SWL H/P/D(F/S/D)=  3/340/ 8

120E CANVRL41010 NOT AVBL

END




USA.gov is the U.S. government's official web portal to all federal, state and local government web resources and services.